Time,TemperatureF,DewpointF,PressureIn,WindDirection,WindDirectionDegrees,WindSpeedMPH,WindSpeedGustMPH,Humidity,HourlyPrecipIn,Conditions,Clouds,dailyrainin,SolarRadiationWatts/m^2,SoftwareType,DateUTC
2013-12-27 00:03:00,28.0,20.0,-100.00,NW,318,2.0,9.0,71,0.00,,,0.00,0.000000,,2013-12-27 05:03:00,
2013-12-27 00:12:00,28.0,20.0,-100.00,NW,318,2.0,9.0,71,0.00,,,0.00,0.000000,,2013-12-27 05:12:00,
2013-12-27 00:42:00,28.0,20.0,-100.00,NNW,329,4.0,10.0,71,0.00,,,0.00,0.000000,,2013-12-27 05:42:00,
2013-12-27 00:52:00,28.0,20.0,-100.00,NNW,329,4.0,10.0,71,0.00,,,0.00,0.000000,,2013-12-27 05:52:00,
2013-12-27 01:02:00,28.0,20.0,-100.00,NNW,329,4.0,10.0,71,0.00,,,0.00,0.000000,,2013-12-27 06:02:00,
2013-12-27 01:12:00,28.0,20.0,-100.00,NNW,329,4.0,10.0,71,0.00,,,0.00,0.000000,,2013-12-27 06:12:00,
2013-12-27 01:43:00,28.0,20.0,-100.00,West,263,5.0,11.0,71,0.00,,,0.00,0.000000,,2013-12-27 06:43:00,
2013-12-27 01:52:00,28.0,20.0,-100.00,West,263,5.0,11.0,71,0.00,,,0.00,0.000000,,2013-12-27 06:52:00,
2013-12-27 02:02:00,28.0,20.0,-100.00,West,263,5.0,11.0,71,0.00,,,0.00,0.000000,,2013-12-27 07:02:00,
2013-12-27 02:12:00,28.0,20.0,-100.00,West,263,5.0,11.0,71,0.00,,,0.00,0.000000,,2013-12-27 07:12:00,
2013-12-27 02:42:00,28.0,20.0,-100.00,West,275,3.0,8.0,71,0.00,,,0.00,0.000000,,2013-12-27 07:42:00,
2013-12-27 02:52:00,28.0,20.0,-100.00,West,275,3.0,8.0,71,0.00,,,0.00,0.000000,,2013-12-27 07:52:00,
2013-12-27 03:02:00,28.0,20.0,-100.00,West,275,3.0,8.0,71,0.00,,,0.00,0.000000,,2013-12-27 08:02:00,
2013-12-27 03:11:00,28.0,20.0,-100.00,West,275,3.0,8.0,71,0.00,,,0.00,0.000000,,2013-12-27 08:11:00,
2013-12-27 03:42:00,28.0,20.0,-100.00,WSW,253,5.0,11.0,71,0.00,,,0.00,0.000000,,2013-12-27 08:42:00,
2013-12-27 03:52:00,28.0,20.0,-100.00,WSW,253,5.0,11.0,71,0.00,,,0.00,0.000000,,2013-12-27 08:52:00,
2013-12-27 04:02:00,28.0,20.0,-100.00,WSW,253,5.0,11.0,71,0.00,,,0.00,0.000000,,2013-12-27 09:02:00,
2013-12-27 04:11:00,28.0,20.0,-100.00,WSW,253,5.0,11.0,71,0.00,,,0.00,0.000000,,2013-12-27 09:11:00,
2013-12-27 04:43:00,27.0,19.0,-100.00,WNW,283,5.0,10.0,70,0.00,,,0.00,0.000000,,2013-12-27 09:43:00,
2013-12-27 04:54:00,27.0,19.0,-100.00,WNW,283,5.0,10.0,70,0.00,,,0.00,0.000000,,2013-12-27 09:54:00,
2013-12-27 05:03:00,27.0,19.0,-100.00,WNW,283,5.0,10.0,70,0.00,,,0.00,0.000000,,2013-12-27 10:03:00,
2013-12-27 05:12:00,27.0,19.0,-100.00,WNW,283,5.0,10.0,70,0.00,,,0.00,0.000000,,2013-12-27 10:12:00,
2013-12-27 05:42:00,27.0,18.0,-100.00,NW,306,3.0,10.0,68,0.00,,,0.00,0.000000,,2013-12-27 10:42:00,
2013-12-27 05:53:00,27.0,18.0,-100.00,NW,306,3.0,10.0,68,0.00,,,0.00,0.000000,,2013-12-27 10:53:00,
2013-12-27 06:03:00,27.0,18.0,-100.00,NW,306,3.0,10.0,68,0.00,,,0.00,0.000000,,2013-12-27 11:03:00,
2013-12-27 06:12:00,27.0,18.0,-100.00,NW,306,3.0,10.0,68,0.00,,,0.00,0.000000,,2013-12-27 11:12:00,
2013-12-27 07:42:00,25.0,15.0,-100.00,NW,309,2.0,5.0,66,-99.99,,,0.00,0.000000,,2013-12-27 12:42:00,
2013-12-27 07:53:00,25.0,15.0,-100.00,NW,309,2.0,5.0,66,-99.99,,,0.00,0.000000,,2013-12-27 12:53:00,
2013-12-27 08:02:00,25.0,15.0,-100.00,NW,309,2.0,5.0,66,-99.99,,,0.00,0.000000,,2013-12-27 13:02:00,
2013-12-27 08:12:00,25.0,15.0,-100.00,NW,309,2.0,5.0,66,-99.99,,,0.00,0.000000,,2013-12-27 13:12:00,
2013-12-27 08:42:00,26.0,15.0,-100.00,WNW,291,4.0,12.0,63,0.00,,,0.00,9.000000,,2013-12-27 13:42:00,
2013-12-27 08:53:00,26.0,15.0,-100.00,WNW,291,4.0,12.0,63,0.00,,,0.00,9.000000,,2013-12-27 13:53:00,
2013-12-27 09:02:00,26.0,15.0,-100.00,WNW,291,4.0,12.0,63,0.00,,,0.00,9.000000,,2013-12-27 14:02:00,
2013-12-27 09:12:00,26.0,15.0,-100.00,WNW,291,4.0,12.0,63,0.00,,,0.00,9.000000,,2013-12-27 14:12:00,
2013-12-27 09:42:00,28.0,16.0,-100.00,WSW,254,3.0,9.0,60,0.00,,,0.00,67.000000,,2013-12-27 14:42:00,
2013-12-27 09:52:00,28.0,16.0,-100.00,WSW,254,3.0,9.0,60,0.00,,,0.00,67.000000,,2013-12-27 14:52:00,
2013-12-27 10:02:00,28.0,16.0,-100.00,WSW,254,3.0,9.0,60,0.00,,,0.00,67.000000,,2013-12-27 15:02:00,
2013-12-27 10:12:00,28.0,16.0,-100.00,WSW,254,3.0,9.0,60,0.00,,,0.00,67.000000,,2013-12-27 15:12:00,
2013-12-27 10:43:00,29.0,16.0,-100.00,WSW,241,1.0,12.0,57,0.00,,,0.00,126.000000,,2013-12-27 15:43:00,
2013-12-27 10:54:00,29.0,16.0,-100.00,WSW,241,1.0,12.0,57,0.00,,,0.00,126.000000,,2013-12-27 15:54:00,
2013-12-27 11:03:00,29.0,16.0,-100.00,WSW,241,1.0,12.0,57,0.00,,,0.00,126.000000,,2013-12-27 16:03:00,
2013-12-27 11:13:00,29.0,16.0,-100.00,WSW,241,1.0,12.0,57,0.00,,,0.00,126.000000,,2013-12-27 16:13:00,
2013-12-27 11:43:00,28.0,16.0,-100.00,WSW,255,5.0,10.0,60,0.00,,,0.00,118.000000,,2013-12-27 16:43:00,
2013-12-27 11:53:00,28.0,16.0,-100.00,WSW,255,5.0,10.0,60,0.00,,,0.00,118.000000,,2013-12-27 16:53:00,
2013-12-27 12:02:00,28.0,16.0,-100.00,WSW,255,5.0,10.0,60,0.00,,,0.00,118.000000,,2013-12-27 17:02:00,
2013-12-27 12:12:00,28.0,16.0,-100.00,WSW,255,5.0,10.0,60,0.00,,,0.00,118.000000,,2013-12-27 17:12:00,
2013-12-27 12:43:00,30.0,15.0,-100.00,West,268,5.0,9.0,54,0.00,,,0.00,140.000000,,2013-12-27 17:43:00,
2013-12-27 12:53:00,30.0,15.0,-100.00,West,268,5.0,9.0,54,0.00,,,0.00,140.000000,,2013-12-27 17:53:00,
2013-12-27 13:02:00,30.0,15.0,-100.00,West,268,5.0,9.0,54,0.00,,,0.00,140.000000,,2013-12-27 18:02:00,
2013-12-27 13:12:00,30.0,15.0,-100.00,West,268,5.0,9.0,54,0.00,,,0.00,140.000000,,2013-12-27 18:12:00,
2013-12-27 13:42:00,34.0,15.0,-100.00,WNW,289,5.0,11.0,45,0.04,,,0.04,281.000000,,2013-12-27 18:42:00,
2013-12-27 13:53:00,34.0,15.0,-100.00,WNW,289,5.0,11.0,45,0.04,,,0.04,281.000000,,2013-12-27 18:53:00,
2013-12-27 14:02:00,34.0,15.0,-100.00,WNW,289,5.0,11.0,45,0.04,,,0.04,281.000000,,2013-12-27 19:02:00,
2013-12-27 14:12:00,34.0,15.0,-100.00,WNW,289,5.0,11.0,45,0.04,,,0.04,281.000000,,2013-12-27 19:12:00,
2013-12-27 14:42:00,30.0,16.0,-100.00,West,265,4.0,12.0,56,0.01,,,0.05,135.000000,,2013-12-27 19:42:00,
2013-12-27 14:52:00,30.0,16.0,-100.00,West,265,4.0,12.0,56,0.01,,,0.05,135.000000,,2013-12-27 19:52:00,
2013-12-27 15:02:00,30.0,16.0,-100.00,West,265,4.0,12.0,56,0.01,,,0.05,135.000000,,2013-12-27 20:02:00,
2013-12-27 15:11:00,30.0,16.0,-100.00,West,265,4.0,12.0,56,0.01,,,0.05,135.000000,,2013-12-27 20:11:00,
2013-12-27 15:42:00,30.0,17.0,-100.00,SW,222,4.0,12.0,57,0.00,,,0.05,74.000000,,2013-12-27 20:42:00,
2013-12-27 15:52:00,30.0,17.0,-100.00,SW,222,4.0,12.0,57,0.00,,,0.05,74.000000,,2013-12-27 20:52:00,
2013-12-27 16:02:00,30.0,17.0,-100.00,SW,222,4.0,12.0,57,0.00,,,0.05,74.000000,,2013-12-27 21:02:00,
2013-12-27 16:11:00,30.0,17.0,-100.00,SW,222,4.0,12.0,57,0.00,,,0.05,74.000000,,2013-12-27 21:11:00,
2013-12-27 17:43:00,30.0,19.0,-100.00,WNW,299,4.0,11.0,64,-99.99,,,0.05,2.000000,,2013-12-27 22:43:00,
2013-12-27 17:53:00,30.0,19.0,-100.00,WNW,299,4.0,11.0,64,-99.99,,,0.05,2.000000,,2013-12-27 22:53:00,
2013-12-27 18:02:00,30.0,19.0,-100.00,WNW,299,4.0,11.0,64,-99.99,,,0.05,2.000000,,2013-12-27 23:02:00,
2013-12-27 18:12:00,30.0,19.0,-100.00,WNW,299,4.0,11.0,64,-99.99,,,0.05,2.000000,,2013-12-27 23:12:00,
2013-12-27 18:42:00,31.0,21.0,-100.00,SW,235,8.0,17.0,66,0.00,,,0.05,0.000000,,2013-12-27 23:42:00,
2013-12-27 18:53:00,31.0,21.0,-100.00,SW,235,8.0,17.0,66,0.00,,,0.05,0.000000,,2013-12-27 23:53:00,
2013-12-27 19:02:00,31.0,21.0,-100.00,SW,235,8.0,17.0,66,0.00,,,0.05,0.000000,,2013-12-28 00:02:00,
2013-12-27 19:11:00,31.0,21.0,-100.00,SW,235,8.0,17.0,66,0.00,,,0.05,0.000000,,2013-12-28 00:11:00,
2013-12-27 19:42:00,31.0,21.0,-100.00,WSW,239,4.0,15.0,66,0.00,,,0.05,0.000000,,2013-12-28 00:42:00,
2013-12-27 19:53:00,31.0,21.0,-100.00,WSW,239,4.0,15.0,66,0.00,,,0.05,0.000000,,2013-12-28 00:53:00,
2013-12-27 20:02:00,31.0,21.0,-100.00,WSW,239,4.0,15.0,66,0.00,,,0.05,0.000000,,2013-12-28 01:02:00,
2013-12-27 20:12:00,31.0,21.0,-100.00,WSW,239,4.0,15.0,66,0.00,,,0.05,0.000000,,2013-12-28 01:12:00,
2013-12-27 20:42:00,31.0,22.0,-100.00,SW,231,7.0,14.0,68,0.00,,,0.05,0.000000,,2013-12-28 01:42:00,
2013-12-27 20:52:00,31.0,22.0,-100.00,SW,231,7.0,14.0,68,0.00,,,0.05,0.000000,,2013-12-28 01:52:00,
2013-12-27 21:02:00,31.0,22.0,-100.00,SW,231,7.0,14.0,68,0.00,,,0.05,0.000000,,2013-12-28 02:02:00,
2013-12-27 21:12:00,31.0,22.0,-100.00,SW,231,7.0,14.0,68,0.00,,,0.05,0.000000,,2013-12-28 02:12:00,
2013-12-27 21:42:00,30.0,21.0,-100.00,West,259,5.0,12.0,68,0.00,,,0.05,0.000000,,2013-12-28 02:42:00,
2013-12-27 21:52:00,30.0,21.0,-100.00,West,259,5.0,12.0,68,0.00,,,0.05,0.000000,,2013-12-28 02:52:00,
2013-12-27 22:02:00,30.0,21.0,-100.00,West,259,5.0,12.0,68,0.00,,,0.05,0.000000,,2013-12-28 03:02:00,
2013-12-27 22:12:00,30.0,21.0,-100.00,West,259,5.0,12.0,68,0.00,,,0.05,0.000000,,2013-12-28 03:12:00,
2013-12-27 22:43:00,30.0,20.0,-100.00,West,276,4.0,12.0,66,0.00,,,0.05,0.000000,,2013-12-28 03:43:00,
2013-12-27 22:53:00,30.0,20.0,-100.00,West,276,4.0,12.0,66,0.00,,,0.05,0.000000,,2013-12-28 03:53:00,
2013-12-27 23:04:00,30.0,20.0,-100.00,West,276,4.0,12.0,66,0.00,,,0.05,0.000000,,2013-12-28 04:04:00,
2013-12-27 23:13:00,30.0,20.0,-100.00,West,276,4.0,12.0,66,0.00,,,0.05,0.000000,,2013-12-28 04:13:00,
2013-12-27 23:43:00,29.0,20.0,-100.00,West,261,4.0,8.0,68,0.00,,,0.05,0.000000,,2013-12-28 04:43:00,
2013-12-27 23:53:00,29.0,20.0,-100.00,West,261,4.0,8.0,68,0.00,,,0.05,0.000000,,2013-12-28 04:53:00,